Details for WeGo Cargo at EGSS




Go Back


Latest METAR
Local Time

EGSS 180620Z AUTO 22012KT 9999 OVC029 16/13 Q1020
18/08/2018, 07:27:48

Description
Results
WeGo Cargo Logo
Number of Pilots based at EGSS
1 Pilots Based here
Number of WeGo Cargo Flights Departed from EGSS
1 Flights Departed
Number of WeGo Cargo Flights Arrived at EGSS
2 Flights Arrived
Number of WeGo Cargo Schedules Departing from EGSS
17 Schedules
Number of WeGo Cargo Schedules Arriving at EGSS
17 Schedules
Number of WeGo Cargo Schedules Departing from EGSS availible today
17 Schedules Today
Number of WeGo Cargo Schedules Arriving at EGSS availible today
17 Schedules Today
Average Landing Rate at EGSS
-221 fpm
WeGo Cargo Average Landing Rate at EGSS
-181 fpm
Total Fuel Purchased at EGSS by WeGo Cargo
108.86 kgs / 239.99 lbs

Pilots Based at EGSS


Pilot ID
Pilot Name
Pilot Rank
No. of Flights
No. of Flying Hours
Joerg Pfeiffer
41
54.01
Content